Location: Newark
(49.8348°N, 24.0280°E)
Time: 06:33:34
(UTC+00:00)

Transit 2A - Pass Details

Date: 27 January 2020
Orbit: 600 x 959 km, 66.7° (Epoch: 19 February)

Event Time Altitude Azimuth Distance (km) Brightness Sun altitude
Rises 16:44:51 0° 170° (S) 2,887 9.0 -15.3°
Reaches altitude 10° 16:47:47 10° 150° (SSE) 1,957 7.9 -15.8°
Enters shadow 16:49:15 15° 131° (SE) 1,649 7.4 -16.0°
Maximum altitude 16:50:34 17° 109° (ESE) 1,547 - -16.2°
Drops below altitude 10° 16:53:21 10° 69° (ENE) 1,948 - -16.7°
Sets 16:56:15 0° 49° (NE) 2,868 - -17.1°
